GW3624 Weather Reports


time (UTC)temp
C
wind
direction
speed
KPH
gust
KPH
rain 1hr
cm
rain 24hr
cm
rain mn
cm
humidity
%
barometer
mb
20260503230508 16 146 8.0 19.3 0.00 0.00 0.00 40 1016.2
20260503230026 16 172 8.0 19.3 0.00 0.00 0.00 39 1016.4
20260503225509 16 206 8.0 20.9 0.00 0.00 0.00 39 1016.3
20260503225003 17 179 6.4 20.9 0.00 0.00 0.00 39 1016.4
20260503224508 17 223 9.7 16.1 0.00 0.00 0.00 39 1016.4
20260503224004 17 203 4.8 16.1 0.00 0.00 0.00 38 1016.6
20260503223505 17 170 6.4 19.3 0.00 0.00 0.00 37 1016.6
20260503223015 17 155 9.7 24.1 0.00 0.00 0.00 38 1017.0
20260503222507 16 214 14.5 24.1 0.00 0.00 0.00 38 1017.0
20260503222010 17 203 12.9 20.9 0.00 0.00 0.00 37 1017.1
20260503221522 17 152 8.0 22.5 0.00 0.00 0.00 38 1017.1
20260503221011 17 160 8.0 22.5 0.00 0.00 0.00 38 1017.0
20260503220509 16 153 9.7 27.4 0.00 0.00 0.00 37 1017.0
20260503220016 17 162 14.5 27.4 0.00 0.00 0.00 35 1017.1
20260503215504 17 196 9.7 25.7 0.00 0.00 0.00 36 1017.1
20260503215004 16 133 11.3 25.7 0.00 0.00 0.00 37 1017.1
20260503214517 16 182 12.9 20.9 0.00 0.00 0.00 36 1017.2
20260503214004 17 110 8.0 20.9 0.00 0.00 0.00 37 1017.3
20260503213504 17 190 9.7 20.9 0.00 0.00 0.00 37 1017.4
20260503213028 17 185 11.3 17.7 0.00 0.00 0.00 36 1017.4
20260503212507 17 186 8.0 22.5 0.00 0.00 0.00 39 1017.3
20260503212013 16 212 8.0 22.5 0.00 0.00 0.00 38 1017.4
20260503211519 16 145 9.7 22.5 0.00 0.00 0.00 39 1017.5
20260503211008 16 181 8.0 16.1 0.00 0.00 0.00 39 1017.6
20260503210510 16 94 11.3 17.7 0.00 0.00 0.00 39 1017.7
20260503210022 17 150 8.0 19.3 0.00 0.00 0.00 40 1017.8
20260503205514 17 147 9.7 25.7 0.00 0.00 0.00 38 1017.8
20260503205013 16 231 4.8 25.7 0.00 0.00 0.00 38 1017.7
20260503204509 16 186 14.5 25.7 0.00 0.00 0.00 37 1017.8
20260503204006 16 146 8.0 24.1 0.00 0.00 0.00 37 1018.0
20260503203505 16 200 9.7 24.1 0.00 0.00 0.00 38 1018.1
20260503203014 16 203 6.4 24.1 0.00 0.00 0.00 41 1018.4
20260503202506 16 163 11.3 22.5 0.00 0.00 0.00 40 1018.5
20260503202009 16 213 16.1 25.7 0.00 0.00 0.00 39 1018.6
20260503201514 16 185 11.3 25.7 0.00 0.00 0.00 39 1018.6
20260503201009 16 139 14.5 25.7 0.00 0.00 0.00 39 1018.7
20260503200509 16 169 9.7 24.1 0.00 0.00 0.00 40 1018.9
20260503200020 16 161 14.5 24.1 0.00 0.00 0.00 40 1019.0
20260503195511 16 213 11.3 24.1 0.00 0.00 0.00 40 1019.0
20260503195009 16 181 8.0 24.1 0.00 0.00 0.00 37 1019.0
20260503194526 16 143 11.3 24.1 0.00 0.00 0.00 37 1019.1
20260503194009 16 166 6.4 19.3 0.00 0.00 0.00 40 1019.1
20260503193510 16 219 9.7 19.3 0.00 0.00 0.00 35 1019.3
20260503193010 16 162 6.4 24.1 0.00 0.00 0.00 38 1019.3
20260503192504 16 241 11.3 24.1 0.00 0.00 0.00 35 1019.5
20260503192012 16 211 11.3 20.9 0.00 0.00 0.00 36 1019.5
20260503191512 16 167 11.3 24.1 0.00 0.00 0.00 36 1019.5
20260503191008 16 210 14.5 24.1 0.00 0.00 0.00 35 1019.7
20260503190507 16 170 8.0 19.3 0.00 0.00 0.00 35 1019.7
20260503190017 16 224 8.0 19.3 0.00 0.00 0.00 35 1019.8
20260503185508 16 189 11.3 19.3 0.00 0.00 0.00 36 1019.9
20260503185008 15 203 8.0 22.5 0.00 0.00 0.00 38 1019.9
20260503184524 15 179 9.7 22.5 0.00 0.00 0.00 38 1019.9
20260503184012 16 193 9.7 24.1 0.00 0.00 0.00 41 1019.9
20260503183510 15 199 11.3 24.1 0.00 0.00 0.00 41 1019.9
20260503183031 15 158 9.7 19.3 0.00 0.00 0.00 38 1020.0
20260503182509 15 178 11.3 20.9 0.00 0.00 0.00 38 1020.0
20260503182008 15 229 12.9 20.9 0.00 0.00 0.00 39 1020.2
20260503181526 15 193 8.0 19.3 0.00 0.00 0.00 38 1020.2
20260503181007 15 143 4.8 24.1 0.00 0.00 0.00 36 1020.3
20260503180506 15 147 4.8 24.1 0.00 0.00 0.00 36 1020.3
20260503180031 15 160 6.4 16.1 0.00 0.00 0.00 36 1020.4
20260503175513 15 47 4.8 16.1 0.00 0.00 0.00 37 1020.4
20260503175006 14 180 4.8 17.7 0.00 0.00 0.00 39 1020.5
20260503174520 14 198 6.4 22.5 0.00 0.00 0.00 37 1020.7
20260503174007 15 169 12.9 22.5 0.00 0.00 0.00 36 1020.8
20260503173507 15 169 6.4 12.9 0.00 0.00 0.00 36 1020.8
20260503173026 13 110 4.8 16.1 0.00 0.00 0.00 35 1020.9
20260503172510 13 108 8.0 17.7 0.00 0.00 0.00 37 1021.0
20260503172010 14 150 9.7 20.9 0.00 0.00 0.00 38 1021.0
20260503171528 13 156 4.8 20.9 0.00 0.00 0.00 35 1021.0
20260503171009 14 203 14.5 20.9 0.00 0.00 0.00 36 1021.2
20260503170509 13 217 6.4 19.3 0.00 0.00 0.00 36 1021.3
20260503151009 12 190 6.4 16.1 0.00 0.00 0.00 42 1022.3
20260503150507 11 235 3.2 9.7 0.00 0.00 0.00 40 1022.2
20260503131005 7 147 3.2 8.0 0.00 0.00 0.00 77 1022.2
20260503130504 7 144 3.2 8.0 0.00 0.00 0.00 79 1022.1
20260503110514 0 351 0.0 0.0 0.00 0.00 0.00 93 1021.3
20260503090507 1 350 0.0 0.0 0.00 0.00 0.00 91 1020.7
20260503081507 2 352 0.0 0.0 0.00 0.00 0.00 90 1020.5
20260503081003 2 352 0.0 0.0 0.00 0.00 0.00 90 1020.5
20260503080503 2 352 0.0 0.0 0.00 0.00 0.00 90 1020.6
20260503072509 3 352 0.0 0.0 0.00 0.00 0.00 87 1020.2
20260503072009 3 352 0.0 0.0 0.00 0.00 0.00 86 1020.2
20260503071522 3 352 0.0 3.2 0.00 0.00 0.00 86 1020.2
20260503071009 3 352 0.0 3.2 0.00 0.00 0.00 86 1020.2
20260503070510 3 352 0.0 3.2 0.00 0.00 0.00 86 1020.2
20260503055008 5 350 3.2 6.4 0.00 0.00 0.00 87 1020.3
20260503054535 5 349 1.6 8.0 0.00 0.00 0.00 89 1020.3
20260503054004 4 321 4.8 8.0 0.00 0.00 0.00 91 1020.2
20260503053507 4 340 3.2 4.8 0.00 0.00 0.00 92 1020.2
20260503053017 3 342 3.2 4.8 0.00 0.00 0.00 92 1020.1
20260503052506 3 338 1.6 4.8 0.00 0.00 0.00 92 1020.1
20260503052010 3 358 0.0 3.2 0.00 0.00 0.00 92 1020.1
20260503051520 3 358 0.0 3.2 0.00 0.00 0.00 91 1020.1
20260503051006 3 358 0.0 3.2 0.00 0.00 0.00 91 1020.1
20260503050513 3 358 0.0 0.0 0.00 0.00 0.00 91 1020.0
20260503050028 3 358 0.0 0.0 0.00 0.00 0.00 92 1019.9
20260503045504 3 358 0.0 0.0 0.00 0.00 0.00 92 1019.9
20260503045006 3 358 0.0 3.2 0.00 0.00 0.00 92 1019.9
20260503044509 4 358 0.0 3.2 0.00 0.00 0.00 91 1019.9
20260503044006 4 358 0.0 3.2 0.00 0.00 0.00 91 1019.8
20260503043504 4 358 0.0 0.0 0.00 0.00 0.00 91 1019.9
20260503043010 4 358 0.0 0.0 0.00 0.00 0.00 91 1019.9
20260503042511 4 358 0.0 0.0 0.00 0.00 0.00 91 1019.8
20260503042008 4 358 0.0 0.0 0.00 0.00 0.00 92 1019.8
20260503041519 4 358 0.0 0.0 0.00 0.00 0.00 91 1019.8
20260503041008 4 358 0.0 0.0 0.00 0.00 0.00 91 1019.9
20260503040515 5 358 0.0 0.0 0.00 0.00 0.00 91 1019.8
20260503040028 5 358 0.0 1.6 0.00 0.00 0.00 91 1019.7
20260503035507 5 358 0.0 1.6 0.00 0.00 0.00 90 1019.7
20260503035010 5 358 0.0 1.6 0.00 0.00 0.00 90 1019.7
20260503034525 5 358 0.0 1.6 0.00 0.00 0.00 90 1019.7
20260503034008 5 358 1.6 1.6 0.00 0.00 0.00 89 1019.7
20260503033505 5 358 0.0 0.0 0.00 0.00 0.00 89 1019.8
20260503033008 5 358 0.0 0.0 0.00 0.00 0.00 89 1019.7
20260503032505 5 358 0.0 0.0 0.00 0.00 0.00 89 1019.7
20260503032006 6 358 0.0 0.0 0.00 0.00 0.00 88 1019.7
20260503031512 6 358 0.0 0.0 0.00 0.00 0.00 88 1019.7
20260503031008 6 358 0.0 0.0 0.00 0.00 0.00 87 1019.8
20260503030506 6 357 0.0 0.0 0.00 0.00 0.00 87 1019.7
20260503030020 6 357 0.0 0.0 0.00 0.00 0.00 86 1019.8
20260503025509 6 357 0.0 0.0 0.00 0.00 0.00 85 1019.7
20260503025007 6 356 0.0 0.0 0.00 0.00 0.00 84 1019.6
20260503024521 6 356 0.0 0.0 0.00 0.00 0.00 83 1019.6
20260503024010 7 356 0.0 0.0 0.00 0.00 0.00 83 1019.5
20260503023511 7 356 0.0 0.0 0.00 0.00 0.00 84 1019.4
20260503023028 6 348 0.0 0.0 0.00 0.00 0.00 83 1019.4
20260503022509 7 332 0.0 0.0 0.00 0.00 0.00 83 1019.4
20260503022007 7 353 0.0 0.0 0.00 0.00 0.00 82 1019.4
20260503021516 7 356 0.0 0.0 0.00 0.00 0.00 81 1019.3
20260503021006 7 355 0.0 0.0 0.00 0.00 0.00 79 1019.3
20260503020507 8 352 0.0 1.6 0.00 0.00 0.00 77 1019.2
20260503020015 8 357 0.0 3.2 0.00 0.00 0.00 75 1019.2
20260503015508 8 358 0.0 3.2 0.00 0.00 0.00 75 1019.2
20260503015009 8 358 0.0 3.2 0.00 0.00 0.00 78 1019.2
20260503014523 8 358 1.6 3.2 0.00 0.00 0.00 76 1019.2
20260503014007 9 358 1.6 3.2 0.00 0.00 0.00 72 1019.1
20260503013509 9 358 1.6 3.2 0.00 0.00 0.00 71 1019.1
20260503013024 9 360 1.6 3.2 0.00 0.00 0.00 70 1019.0
20260503012511 9 333 1.6 3.2 0.00 0.00 0.00 70 1018.9
20260503012009 9 334 0.0 3.2 0.00 0.00 0.00 70 1018.8
20260503011533 9 330 0.0 3.2 0.00 0.00 0.00 70 1018.8
20260503011010 9 330 1.6 3.2 0.00 0.00 0.00 69 1018.8
20260503010507 9 326 0.0 3.2 0.00 0.00 0.00 71 1018.6
20260503010014 9 328 1.6 3.2 0.00 0.00 0.00 72 1018.6
20260503005506 8 328 1.6 3.2 0.00 0.00 0.00 72 1018.5
20260503005011 9 342 1.6 3.2 0.00 0.00 0.00 72 1018.5
20260503004540 9 348 1.6 3.2 0.00 0.00 0.00 69 1018.4
20260503004009 10 351 1.6 3.2 0.00 0.00 0.00 66 1018.3
20260503003506 10 353 1.6 3.2 0.00 0.00 0.00 65 1018.3
20260503003022 10 342 1.6 3.2 0.00 0.00 0.00 65 1018.1
20260503002509 10 360 0.0 4.8 0.00 0.00 0.00 65 1018.0
20260503002012 10 1 0.0 6.4 0.00 0.00 0.00 63 1017.9
20260503001526 11 358 3.2 8.0 0.00 0.00 0.00 62 1017.9
20260503001011 11 359 4.8 8.0 0.00 0.00 0.00 61 1017.9
20260503000514 11 338 1.6 8.0 0.00 0.00 0.00 61 1017.8
20260502235509 11 354 4.8 8.0 0.00 0.00 0.00 59 1017.8
20260502235010 11 358 4.8 6.4 0.00 0.00 0.00 58 1017.9
20260502234530 11 326 3.2 6.4 0.00 0.00 0.00 57 1017.8
20260502234006 11 326 3.2 6.4 0.00 0.00 0.00 56 1017.8
20260502233508 11 320 3.2 8.0 0.00 0.00 0.00 57 1017.8
20260502233020 11 302 4.8 8.0 0.00 0.00 0.00 55 1017.8
20260502232510 11 318 4.8 8.0 0.00 0.00 0.00 55 1017.8
20260502232008 11 336 4.8 11.3 0.00 0.00 0.00 57 1017.8
20260502231524 11 323 8.0 11.3 0.00 0.00 0.00 53 1017.7
20260502231009 12 300 8.0 14.5 0.00 0.00 0.00 53 1017.7